レモン彗星

C/2009 UG89 ( Lemmon )

English version
Home page
Updated on December 18, 2011

---------------------------------------------------------------------

・ プロフィール

発見日 2009年10月22日
発見光度 20.2等
発見者 A. D. Grauer (Mt. Lemmon Survey)

・ 写真集

・ 軌道要素

Epoch 2010 Dec. 30.0 TT = JDT 2455560.5
T 2010 Dec. 16.26993 TT                                 MPC
q   3.9311722            (2000.0)            P               Q
z  -0.0020517      Peri.   60.65375     +0.02763335     -0.87612595
 +/-0.0000005      Node   321.00846     -0.94852689     +0.12897582
e   1.0080657      Incl.  130.10046     +0.31548873     +0.46450894
From 867 observations 2009 Oct. 22-2011 Dec. 7, mean residual 0".5.

・ 星図

・ 光度変化

        m1 = 2.0 + 5 logΔ + 20.0 log r

---------------------------------------------------------------------

軌道要素はM.P.E.C. 2011-Y02に掲載されたものです。
星図はステラナビゲータ Ver.8 (アストロアーツ) で作成したものです。
光度グラフはComet for Windowsで作成したものです。

---------------------------------------------------------------------

Copyright(C) Seiichi Yoshida (comet@aerith.net). All rights reserved.